This demonstration page uses our WeatherBlox Daily Observations layout. Learn more.

Left ArrowRight Arrow

39.29038, -76.61219

Hourly Observations for March 21, 2018

Temp ( °F °C ) Dew Point ( °F °C ) Humidity (%) Winds ( mph kmh ) Pressure ( in mb ) Visibility ( mi km ) Precip ( " mm )
12:54 am 00:54 undefined 33 0.6 29 -1.7 85 85 undefined N/A 29.76 1008 N/A 0.02 0.51
1:54 am 01:54 undefined 34 1.1 28 -2.2 79 79 undefined N/A 29.72 1006 N/A 0.01 0.25
2:54 am 02:54 undefined 34 1.1 26 -3.3 73 73 undefined N/A 29.66 1005 N/A 0.00 0.00
3:54 am 03:54 undefined 35 1.7 25 -3.9 67 67 undefined N/A 29.65 1004 N/A 0.00 0.00
4:54 am 04:54 undefined 33 0.6 28 -2.2 82 82 undefined N/A 29.64 1004 N/A 0.00 0.00
5:54 am 05:54 undefined 33 0.6 29 -1.7 85 85 undefined N/A 29.65 1004 N/A 0.02 0.51
6:54 am 06:54 undefined 33 0.6 30 -1.1 89 89 undefined N/A 29.64 1004 N/A 0.02 0.51
7:54 am 07:54 undefined 33 0.6 30 -1.1 89 89 undefined N/A 29.63 1003 N/A 0.00 0.00
8:54 am 08:54 undefined 33 0.6 30 -1.1 89 89 undefined N/A 29.64 1004 N/A 0.02 0.51
9:54 am 09:54 undefined 33 0.6 31 -0.6 92 92 undefined N/A 29.65 1004 N/A 0.04 1.02
10:54 am 10:54 undefined 33 0.6 31 -0.6 92 92 undefined N/A 29.64 1004 N/A 0.05 1.27
11:54 am 11:54 undefined 33 0.6 32 0 96 96 undefined N/A 29.64 1004 N/A 0.13 3.30
12:54 pm 12:54 undefined 34 1.1 31 -0.6 89 89 undefined N/A 29.66 1004 N/A 0.09 2.29
1:54 pm 13:54 undefined 34 1.1 30 -1.1 85 85 undefined N/A 29.66 1004 N/A 0.04 1.02
2:54 pm 14:54 undefined 35 1.7 31 -0.6 85 85 undefined N/A 29.65 1004 N/A 0.06 1.52
3:54 pm 15:54 undefined 35 1.7 31 -0.6 85 85 undefined N/A 29.66 1004 N/A 0.02 0.51
4:54 pm 16:54 undefined 36 2.2 31 -0.6 82 82 undefined N/A 29.67 1005 N/A 0.00 0.00
5:54 pm 17:54 undefined 36 2.2 30 -1.1 79 79 undefined N/A 29.69 1005 N/A 0.00 0.00
6:54 pm 18:54 undefined 36 2.2 29 -1.7 76 76 undefined N/A 29.71 1006 N/A 0.00 0.00
7:54 pm 19:54 undefined 36 2.2 29 -1.7 76 76 undefined N/A 29.74 1007 N/A 0.00 0.00
8:54 pm 20:54 undefined 35 1.7 30 -1.1 82 82 undefined N/A 29.76 1008 N/A 0.00 0.00
9:54 pm 21:54 undefined 35 1.7 31 -0.6 85 85 undefined N/A 29.77 1008 N/A 0.01 0.25
10:54 pm 22:54 undefined 36 2.2 29 -1.7 76 76 undefined N/A 29.79 1009 N/A 0.00 0.00
11:54 pm 23:54 undefined 36 2.2 30 -1.1 79 79 undefined N/A 29.80 1009 N/A 0.00 0.00

Powered by AerisWeather